COSMOS 1375 DEB, 16206

Orbit data source: Space-Track

COSMOS 1375 DEB, 16206 is space debris in LEO originally from a launch on Sun, 06 Jun 1982 UTC launched from the Plesetsk Missile And Space Complex (PKMTR). Debris objects in space refer to the collection of defunct objects orbiting the Earth. Examples of debris include non-operational satellites, rocket bodies, and fragments generated from explosions, collisions, or faulty payload assembly.

Loading next visibility...
Identifier
16206, 1982-055H
Orbit
LEO
Country
Flag of CISCIS
Related business
Manufacturer
Unknown
Mission
Spacecraft
Bus & Motor
Unknown
Mass
Unknown
Launch date (UTC)
1982-06-06 (44 years ago)
Launch vehicle
Unknown
Launch site
Plesetsk Missile And Space Complex (PKMTR)
Object type
Payload
Rocket body
Debris
Shape & HBR
Unknown shape, 0.6 m
Radar Cross Section
Medium (>0.1 m² and <1 m²)

Expand to show TLE details & history
Last TLE update: 2 days ago

TLE from 2 days ago
0 COSMOS 1375 DEB
1 16206U 82055H   26171.48376889  .00000012  00000-0  97984-4 0  9999
2 16206  65.8324 194.5522 0015083   5.1410 153.7580 13.73997255206829
Epoch: 2026-06-20T11:36Z
TLE epoch observation values (Epoch: 2026-06-20T11:36:37.632Z)
Latitude
19.12077°
Longitude
-77.20552°
Altitude
996.731 km
Speed
7.35 km/s
True Right ascension
00h 22m 35s
True Declination
19° 01' 05"
Sunlit
Object was in daylight at epoch
Visualization orbit readout
Latitude
Unknown
Longitude
Unknown
Altitude
Unknown
Speed
Unknown
Apparent Right ascension
Unknown
Apparent Declination
Unknown
Sunlit
N/A
Visualization observer readout
Local Sidereal Time
02:00:08
Azimuth
Unknown
Elevation
Unknown
Doppler factor
Unknown
Orbital elements
Apogee altitude
994.877 km
Perigee altitude
972.669 km
Semi-major axis
7,361.91 km
Eccentricity
0.00151
Inclination
65.8324°
RAAN
194.5522°
Arg. of periapsis
5.141°
True anomaly
153.83429°
Mean anomaly
153.758°
Eccentric anomaly
153.79616°
Mean motion
3.43603 °/min
Orbital period
104.77 mins
BSTAR
0.000097984
Loading maneuver chart data...
Computing Atmospheric mass density...
Loading historical data...
Loading historical data...
Loading historical data...
Loading historical data...
Loading historical data...
Loading historical data...
Loading historical data...

Documentation

Showing up to 5 results
|